Preview of NWS' New Version of Forecast
This preview is not operational and should not be used for support decisions.

Regional Weather Roundup (RWR)

Issued by National Weather Service (NWS)

                            
000
ASUS42 KTBW 180015
RWRFL 
FLORIDA REGIONAL WEATHER ROUNDUP
NATIONAL WEATHER SERVICE TAMPA BAY RUSKIN FL
800 PM EDT MON JUN 17 2019

NOTE: "FAIR" INDICATES FEW OR NO CLOUDS BELOW 12,000 FEET WITH NO
SIGNIFICANT WEATHER AND/OR OBSTRUCTIONS TO VISIBILITY.

FLZ001>010-012>015-112-114-115-180100-
PANHANDLE FLORIDA
  
CITY           SKY/WX    TMP DP  RH WIND       PRES   REMARKS
PENSACOLA      FAIR      84  73  69 S9        29.96R                  
PENSACOLA NAS  MOCLDY    84  75  74 S8        29.96R                  
MILTON NAS     MOCLDY    83  74  74 S10       29.96R                  
CRESTVIEW      FAIR      85  71  63 S8        29.98R                  
MARY ESTHER    PTCLDY    86  73  66 S9        29.96R                  
TRI COUNTY     MOCLDY    83  73  72 CALM      29.99R                  
PANAMA CITY    FAIR      83  73  72 S7        29.97R                  
APALACHICOLA   FAIR      83  73  72 SE6       29.99R                  

STATION/POSITION SKY/WX   TEMP    WIND        PRES    WAVE   SWELL
                          AIR SEA DIR/SP/G            HT/PER HT/PER
                          (F)     (DEG/KT/KT) (MB)    (FT/S) (FT/S)
30.1N   87.6W                                   N/A     2/ 4
29.2N   88.2W                     160/ 10/ 12 1014.4R   2/ 3   2/ 5
PANAMA CITY BEAC              86  170/  9/  9 1015.6R
TOWER C          NOT AVBL

$$
FLZ011-016>038-118-127-128-134-139-239-180100-
NORTH FLORIDA
  
CITY           SKY/WX    TMP DP  RH WIND       PRES   REMARKS
MARIANNA       FAIR      82  74  76 S5        29.99R                  
TALLAHASSEE    MOCLDY    85  74  69 S9        29.99R                  
PERRY          FAIR      78  76  92 CALM      30.01R                  
LIVE OAK       CLEAR     75  75 100 CALM      30.01S                  
CROSS CITY     FAIR      78  74  87 E5        30.01S                  
LAKE CITY      FAIR      73  70  88 CALM      30.02F                  
GAINESVILLE    FAIR      81  73  76 SE5       30.05F                  
PALATKA        FAIR      77  73  88 E7        30.04S                  
MAYPORT NAS    MOCLDY    81  72  74 SE15      30.05F                  
JACKSONVILLE   MOCLDY    81  70  69 SE14      30.03F                  
JAX NAS        MOCLDY    82  70  66 SE10      30.04F                  
JAX CECIL      CLEAR     81  72  74 SE5       30.04S                  
FERNANDINA BEA FAIR      81  74  80 SE14      30.04F                  
ST AUGUSTINE   FAIR      80  74  81 SE15      30.05F                  
PALM COAST     FAIR      79  73  81 SE9       30.04F                  

STATION/POSITION SKY/WX   TEMP    WIND        PRES    WAVE   SWELL
                          AIR SEA DIR/SP/G            HT/PER HT/PER
                          (F)     (DEG/KT/KT) (MB)    (FT/S) (FT/S)
SHELL POINT      NOT AVBL
KEATON BEACH               79     100/  8/ 12 1015.8F
CEDAR KEY                                       N/A
FERNANDINA                 83 83  140/  8/ 13 1018.2F
30.7N   81.3W                 82                N/A     3/ 4
MAYPORT                    80 82  150/  7/ 13 1017.8F
31.4N   80.9W              81 83  170/ 16/ 19 1017.5F   2/ 8   2/ 8
ST AUGUSTINE               79 82  140/ 15/ 16 1017.5F

$$
FLZ040-043>046-052-053-057-058-063-144-180100-
INTERIOR CENTRAL FLORIDA
  
CITY           SKY/WX    TMP DP  RH WIND       PRES   REMARKS
OCALA          FAIR      77  73  87 E5        30.04S                  
LEESBURG       MOCLDY    78  71  79 E8        30.04R                  
SANFORD        FAIR      79  73  82 E6        30.02F                  
ORLANDO EXEC   CLOUDY    77  73  87 SW6       30.03S                  
ORLANDO INTL   CLOUDY    75  72  90 CALM      30.02F                  
KISSIMMEE      LGT RAIN  75  73  93 CALM      30.03F                  
WINTER HAVEN   FAIR      76  73  91 S8        30.02F                  
LAKELAND       PTCLDY    75  73  94 SE5       30.02F                  
BARTOW         FAIR      75  73  94 S7        30.01F                  
SEBRING        MOCLDY    76  74  94 SE5       30.04S                  
OKEECHOBEE     MOCLDY    75  72  88 SE5       30.04R                  

$$
FLZ041-047-054-059-064-141-147-180100-
EAST CENTRAL FLORIDA
  
CITY           SKY/WX    TMP DP  RH WIND       PRES   REMARKS
DAYTONA BEACH  RAIN      80  75  84 E9        30.03F                  
DELAND         CLOUDY    81  72  74 SE6       30.04R                  
NEW SMYRNA BEA MOCLDY    81  73  78 SE12      30.05S                  
TITUSVILLE     PTCLDY    81  73  78 S12       30.03F                  
PATRICK AFB    FAIR      79  77  94 S12       30.03S                  
MELBOURNE      MOCLDY    79  73  82 S9        30.03S                  
VERO BEACH     MOCLDY    76  73  91 S7        30.05S                  
FT PIERCE      MOCLDY    76  72  87 CALM      30.06R                  
STUART         MOCLDY    77  72  83 VRB6      30.07R                  

STATION/POSITION SKY/WX   TEMP    WIND        PRES    WAVE   SWELL
                          AIR SEA DIR/SP/G            HT/PER HT/PER
                          (F)     (DEG/KT/KT) (MB)    (FT/S) (FT/S)
28.5N   80.2W              78 80  160/ 14/ 16 1017.3R   3/ 4
28.9N   78.5W              79 83  130/ 12/ 16   N/A     3/ 5   2/ 8
TRIDENT PIER               79 80  160/ 12/ 14 1018.3F
28.4N   80.5W                 78                N/A     4/ 5
27.5N   80.2W                 78                N/A     3/ 5

$$
FLZ050-056-061-142-242-148-248-149-249-151-251-155-255-
160-260-180100-
WEST CENTRAL FLORIDA
  
CITY           SKY/WX    TMP DP  RH WIND       PRES   REMARKS
CRYSTAL RIVER  DRIZZLE   77  73  88 E3        30.02S                  
INVERNESS      LGT RAIN  75  75 100 CALM      30.03S                  
BROOKSVILLE    MOCLDY    77  74  90 SE7       30.02F                  
CLEARWATER AIR MOCLDY    79  72  78 SE9       30.01S                  
ST PETE CLEARW MOCLDY    78  72  81 SE8       30.01R                  
TAMPA INTL     MOCLDY    77  73  87 E12       30.02F                  
TAMPA EXEC     LGT RAIN  73  73 100 SE3       30.03S                  
PLANT CITY     LGT RAIN N/A N/A N/A SE3       30.04F                  
PETER O KNIGHT LGT RAIN N/A N/A N/A E6        30.02F                  
ST PETERSBURG  FAIR      79  75  87 E23       30.01S                  
SARASOTA       MOCLDY    83  71  67 S7        30.00R                  
VENICE         FAIR      81  75  83 SE7       30.02R                  

STATION/POSITION SKY/WX   TEMP    WIND        PRES    WAVE   SWELL
                          AIR SEA DIR/SP/G            HT/PER HT/PER
                          (F)     (DEG/KT/KT) (MB)    (FT/S) (FT/S)
27.3N   84.2W                 83                N/A     2/ 6
CLEARWATER BEACH              86  110/  8/ 12 1016.4R
MIDDLE TAMPA BAY           79     110/ 12/ 15 1016.6R
VENICE                     79 85  100/  5/  6 1016.3R

$$
FLZ066-069-070-075>078-162-262-165-265-180100-
SOUTHWEST FLORIDA AND KEYS
  
CITY           SKY/WX    TMP DP  RH WIND       PRES   REMARKS
PUNTA GORDA    LGT RAIN  74  72  93 CALM      30.04R                  
FT MYERS       LGT RAIN  75  73  93 S8        30.03S FOG              
SOUTHWEST INTL HVY RAIN  79  72  79 W8        30.05R                  
NAPLES         FAIR      75  50  41 E6        30.03R                  
IMMOKALEE      FAIR      75  73  94 CALM      30.03R                  
MARATHON       FAIR      84  77  79 E7        30.03R                  
KEY WEST NAS   MOCLDY    85  77  77 SE12      30.03R HX  95           
KEY WEST INTL  FAIR      82  78  88 SE13      30.03S                  

STATION/POSITION SKY/WX   TEMP    WIND        PRES    WAVE   SWELL
                          AIR SEA DIR/SP/G            HT/PER HT/PER
                          (F)     (DEG/KT/KT) (MB)    (FT/S) (FT/S)
NAPLES                     76 85              1017.0R
DRY TORTUGAS               84     160/ 12/ 13 1016.3F
SAND KEY                   82                 1016.8R
SOMBRERO KEY               82                 1016.4R

$$
FLZ067-068-071>074-168-172>174-180100-
SOUTHEAST FLORIDA 
  
CITY           SKY/WX    TMP DP  RH WIND       PRES   REMARKS
W PALM BEACH   MOCLDY    75  71  87 S7        30.07S                  
BOCA RATON     LGT RAIN  73  73 100 S8        30.06F                  
FT LAUDER-EXEC FAIR      75  73  93 E7        30.06S                  
FT LAUDERDALE  MOCLDY    76  73  91 E8        30.05F                  
POMPANO BEACH  LGT RAIN  75  72  90 E7        30.06S                  
PEMBROKE PINES FAIR      76  73  91 E6        30.07F                  
OPA LOCKA      FAIR      76  74  93 E6        30.07S                  
MIAMI          MOCLDY    78  73  84 E8        30.06S                  
WEST KENDALL   FAIR      78  74  87 E9        30.06R                  
HOMESTEAD      NOT AVBL                                               

STATION/POSITION SKY/WX   TEMP    WIND        PRES    WAVE   SWELL
                          AIR SEA DIR/SP/G            HT/PER HT/PER
                          (F)     (DEG/KT/KT) (MB)    (FT/S) (FT/S)
VIRGINIA KEY                  84  100/ 10/ 13 1017.6S
LAKE WORTH                 76 83  170/ 13/ 15 1018.9F
SETTLEMENT POINT           75     130/ 10/ 11 1019.0R

$$